• In Belarus
  • List of Countries
  • For 7 days
  • Water Temperature
  • Satellite Maps
  • Weather Map
  • Weather Widgets
  • user-avatar
    Login

    Hourly Weather Wien

    Today, 17 July, Wednesday

    Time Temperature Precipitation Wind Pressure Humidity
    00:00 +18°C° 0 mm 1 mps 742 mmHg 75%
    01:00 +18°C° 0 mm 1 mps 743 mmHg 77%
    02:00 +16°C° 0 mm 1 mps 742 mmHg 77%
    03:00 +16°C° 0 mm 2 mps 742 mmHg 77%
    04:00 +15°C° 0 mm 2 mps 742 mmHg 78%
    05:00 +16°C° 0 mm 2 mps 742 mmHg 74%
    06:00 +18°C° 0 mm 2 mps 742 mmHg 71%
    07:00 +20°C° 0 mm 1 mps 742 mmHg 66%
    08:00 +20°C° 0 mm 2 mps 742 mmHg 62%
    09:00 +23°C° 0 mm 2 mps 742 mmHg 57%
    10:00 +24°C° 0 mm 2 mps 742 mmHg 53%
    11:00 +25°C° 0 mm 3 mps 742 mmHg 51%
    12:00 +26°C° 0 mm 3 mps 741 mmHg 48%
    13:00 +27°C° 0 mm 3 mps 741 mmHg 46%
    14:00 +27°C° 0 mm 3 mps 741 mmHg 46%
    15:00 +27°C° 0 mm 3 mps 741 mmHg 47%
    16:00 +27°C° 0 mm 3 mps 741 mmHg 48%
    17:00 +26°C° 0.3 mm 2 mps 740 mmHg 54%
    18:00 +24°C° 0.3 mm 2 mps 740 mmHg 59%
    19:00 +23°C° 0.3 mm 1 mps 740 mmHg 65%
    20:00 +22°C° 0.2 mm 1 mps 740 mmHg 68%
    21:00 +21°C° 0.2 mm 1 mps 741 mmHg 71%
    22:00 +20°C° 0.2 mm 1 mps 741 mmHg 73%
    23:00 +19°C° 0.1 mm 1 mps 741 mmHg 75%

    Tomorrow, 18 July, Thursday

    Time Temperature Precipitation Wind Pressure Humidity
    00:00 +19°C° 0.1 mm 1 mps 741 mmHg 77%
    01:00 +18°C° 0.1 mm 1 mps 741 mmHg 78%
    02:00 +18°C° 0.1 mm 1 mps 741 mmHg 80%
    03:00 +16°C° 0.1 mm 1 mps 741 mmHg 81%
    04:00 +16°C° 0.1 mm 1 mps 741 mmHg 83%
    05:00 +18°C° 0 mm 1 mps 741 mmHg 79%
    06:00 +19°C° 0 mm 1 mps 741 mmHg 75%
    07:00 +20°C° 0 mm 1 mps 741 mmHg 71%
    08:00 +22°C° 0.1 mm 1 mps 741 mmHg 65%
    09:00 +24°C° 0.1 mm 1 mps 741 mmHg 58%
    10:00 +25°C° 0.1 mm 1 mps 742 mmHg 52%
    11:00 +27°C° 0.1 mm 1 mps 741 mmHg 47%
    12:00 +28°C° 0.1 mm 1 mps 741 mmHg 41%
    13:00 +29°C° 0.1 mm 1 mps 741 mmHg 36%
    14:00 +29°C° 0 mm 1 mps 741 mmHg 36%
    15:00 +29°C° 0 mm 1 mps 741 mmHg 36%
    16:00 +29°C° 0 mm 2 mps 741 mmHg 35%
    17:00 +28°C° 0 mm 1 mps 741 mmHg 41%
    18:00 +27°C° 0 mm 1 mps 741 mmHg 46%
    19:00 +25°C° 0 mm 1 mps 741 mmHg 51%
    20:00 +24°C° 0 mm 1 mps 741 mmHg 54%
    21:00 +23°C° 0 mm 1 mps 742 mmHg 58%
    22:00 +22°C° 0 mm 1 mps 742 mmHg 62%
    23:00 +21°C° 0 mm 1 mps 742 mmHg 64%

    Day after tomorrow, 19 July, Friday

    Time Temperature Precipitation Wind Pressure Humidity
    00:00 +21°C° 0 mm 1 mps 742 mmHg 65%
    01:00 +20°C° 0 mm 1 mps 742 mmHg 67%
    02:00 +20°C° 0 mm 1 mps 742 mmHg 69%
    03:00 +20°C° 0 mm 1 mps 742 mmHg 71%
    04:00 +19°C° 0 mm 1 mps 742 mmHg 72%
    05:00 +20°C° 0 mm 1 mps 743 mmHg 69%
    06:00 +21°C° 0 mm 1 mps 743 mmHg 65%
    07:00 +22°C° 0 mm 1 mps 743 mmHg 62%
    08:00 +24°C° 0 mm 1 mps 743 mmHg 57%
    09:00 +26°C° 0 mm 1 mps 743 mmHg 52%
    10:00 +27°C° 0 mm 2 mps 743 mmHg 47%
    11:00 +28°C° 0 mm 2 mps 743 mmHg 44%
    12:00 +29°C° 0 mm 2 mps 743 mmHg 40%
    13:00 +30°C° 0 mm 2 mps 743 mmHg 37%
    14:00 +30°C° 0 mm 2 mps 743 mmHg 37%
    15:00 +30°C° 0 mm 2 mps 743 mmHg 37%
    16:00 +30°C° 0 mm 2 mps 743 mmHg 37%
    17:00 +29°C° 0 mm 1 mps 743 mmHg 41%
    18:00 +28°C° 0 mm 1 mps 743 mmHg 46%
    19:00 +27°C° 0 mm 1 mps 743 mmHg 50%
    20:00 +26°C° 0 mm 1 mps 743 mmHg 53%
    21:00 +24°C° 0 mm 1 mps 743 mmHg 57%
    22:00 +23°C° 0 mm 1 mps 743 mmHg 60%
    23:00 +22°C° 0 mm 1 mps 743 mmHg 63%

    20 July, Saturday

    Time Temperature Precipitation Wind Pressure Humidity
    00:00 +22°C° 0 mm 1 mps 743 mmHg 65%
    01:00 +21°C° 0 mm 1 mps 743 mmHg 68%
    02:00 +21°C° 0 mm 1 mps 743 mmHg 69%
    03:00 +21°C° 0 mm 1 mps 743 mmHg 71%
    04:00 +20°C° 0 mm 1 mps 744 mmHg 73%
    05:00 +21°C° 0 mm 1 mps 744 mmHg 69%
    06:00 +21°C° 0 mm 0 mps 744 mmHg 65%
    07:00 +22°C° 0 mm 0 mps 744 mmHg 61%
    08:00 +24°C° 0 mm 0 mps 744 mmHg 56%
    09:00 +28°C° 0 mm 1 mps 744 mmHg 50%
    10:00 +30°C° 0 mm 1 mps 744 mmHg 44%
    11:00 +31°C° 0 mm 1 mps 744 mmHg 41%
    12:00 +32°C° 0 mm 2 mps 744 mmHg 37%
    13:00 +34°C° 0 mm 2 mps 744 mmHg 34%
    14:00 +34°C° 0 mm 2 mps 744 mmHg 34%
    15:00 +34°C° 0 mm 2 mps 744 mmHg 33%
    16:00 +34°C° 0 mm 2 mps 743 mmHg 33%
    17:00 +32°C° 0 mm 2 mps 744 mmHg 38%
    18:00 +30°C° 0 mm 2 mps 744 mmHg 44%
    19:00 +29°C° 0 mm 1 mps 744 mmHg 49%
    20:00 +28°C° 0.2 mm 1 mps 744 mmHg 54%
    21:00 +27°C° 0.2 mm 1 mps 745 mmHg 58%
    22:00 +26°C° 0.2 mm 1 mps 745 mmHg 63%
    23:00 +25°C° 0.1 mm 1 mps 745 mmHg 65%

    21 July, Sunday

    Time Temperature Precipitation Wind Pressure Humidity
    00:00 +24°C° 0.1 mm 1 mps 745 mmHg 68%
    01:00 +24°C° 0.1 mm 1 mps 745 mmHg 70%
    02:00 +23°C° 0 mm 1 mps 745 mmHg 72%
    03:00 +22°C° 0 mm 1 mps 745 mmHg 74%
    04:00 +21°C° 0 mm 2 mps 745 mmHg 76%
    05:00 +23°C° 0 mm 2 mps 745 mmHg 72%
    06:00 +24°C° 0 mm 2 mps 746 mmHg 68%
    07:00 +25°C° 0 mm 2 mps 746 mmHg 64%
    08:00 +27°C° 0 mm 2 mps 746 mmHg 57%
    09:00 +28°C° 0 mm 3 mps 746 mmHg 50%
    10:00 +30°C° 0 mm 3 mps 747 mmHg 42%
    11:00 +32°C° 0 mm 4 mps 746 mmHg 39%
    12:00 +33°C° 0 mm 4 mps 746 mmHg 36%
    13:00 +34°C° 0 mm 4 mps 746 mmHg 33%
    14:00 +34°C° 0 mm 4 mps 746 mmHg 33%
    15:00 +34°C° 0 mm 4 mps 746 mmHg 33%
    16:00 +34°C° 0 mm 4 mps 746 mmHg 34%
    17:00 +33°C° 0 mm 4 mps 746 mmHg 40%
    18:00 +30°C° 0 mm 3 mps 746 mmHg 47%
    19:00 +28°C° 0 mm 2 mps 746 mmHg 53%
    20:00 +27°C° 0.2 mm 2 mps 746 mmHg 58%
    21:00 +26°C° 0.2 mm 2 mps 747 mmHg 64%
    22:00 +25°C° 0.2 mm 2 mps 747 mmHg 70%
    23:00 +24°C° 0 mm 2 mps 747 mmHg 72%

    22 July, Monday

    Time Temperature Precipitation Wind Pressure Humidity
    00:00 +23°C° 0 mm 2 mps 747 mmHg 74%
    01:00 +23°C° 0 mm 2 mps 747 mmHg 76%
    02:00 +21°C° 0 mm 2 mps 747 mmHg 77%
    03:00 +21°C° 0 mm 2 mps 747 mmHg 78%
    04:00 +20°C° 0 mm 2 mps 747 mmHg 78%
    05:00 +21°C° 0 mm 2 mps 747 mmHg 74%
    06:00 +22°C° 0 mm 3 mps 747 mmHg 70%
    07:00 +24°C° 0 mm 3 mps 747 mmHg 66%
    08:00 +25°C° 0 mm 3 mps 747 mmHg 60%
    09:00 +26°C° 0 mm 3 mps 747 mmHg 54%
    10:00 +28°C° 0 mm 3 mps 747 mmHg 47%
    11:00 +29°C° 0 mm 3 mps 747 mmHg 44%
    12:00 +30°C° 0 mm 3 mps 747 mmHg 41%
    13:00 +31°C° 0 mm 3 mps 746 mmHg 38%
    14:00 +31°C° 0 mm 3 mps 746 mmHg 38%
    15:00 +31°C° 0 mm 3 mps 746 mmHg 38%
    16:00 +30°C° 0 mm 4 mps 746 mmHg 38%
    17:00 +29°C° 0 mm 3 mps 746 mmHg 42%
    18:00 +28°C° 0 mm 3 mps 746 mmHg 47%
    19:00 +27°C° 0 mm 3 mps 746 mmHg 51%
    20:00 +26°C° 0 mm 3 mps 746 mmHg 53%
    21:00 +24°C° 0 mm 2 mps 746 mmHg 55%
    22:00 +23°C° 0 mm 2 mps 747 mmHg 57%
    23:00 +21°C° 0 mm 2 mps 747 mmHg 59%
    Show more